Location: Piesky
(48.8193°N, 19.1258°E)
Time: 16:08:47
(UTC+00:00)

Daily predictions for brighter satellites

Satellite Brightness Start Highest point End
(mag) Time Altitude Azimuth Time Altitude Azimuth Time Altitude Azimuth
Starlink U 3.8 16:02:19 10° WNW 16:05:19 37° N 16:08:19 10° ENE
Starlink B 3.8 16:04:19 10° WNW 16:07:20 37° N 16:10:20 10° ENE
Okean O Rocket 3.5 16:05:53 10° SSW 16:09:59 36° W 16:14:07 10° NNW
BREEZE-M DEB (TANK) 3.8 16:09:42 10° SSW 16:11:38 20° SSE 16:13:33 10° E
AQUARIUS 4.3 16:07:23 10° SSE 16:11:53 87° WSW 16:16:25 10° NNW
Cosmos 2221 4.2 16:10:49 10° NNE 16:13:05 14° ENE 16:15:20 10° E
Nadezhda 3 Rocket 4.3 16:06:47 10° NNW 16:13:06 77° W 16:19:25 10° S
Cosmos 1626 3.0 16:09:47 10° SSW 16:13:25 53° WNW 16:17:05 10° N
Okean-O 2.6 16:13:58 10° SSE 16:18:19 61° ENE 16:22:43 10° N
Cosmos 44 3.5 16:15:02 10° SSW 16:19:23 46° ESE 16:23:38 10° NE
Cosmos-2242 3.0 16:15:52 10° N 16:20:10 60° ENE 16:24:23 10° SSE
Starlink D 3.8 16:18:00 10° WNW 16:21:02 37° N 16:23:39 13° ENE
Cosmos 1356 Rocket 4.3 16:18:34 10° N 16:22:00 26° ENE 16:25:29 10° SE
Starlink S 3.8 16:20:06 10° WNW 16:23:07 37° N 16:25:39 13° ENE
Cosmos 724 4.4 16:18:16 10° SW 16:24:14 83° NW 16:30:08 10° NE
Cosmos 1727 Rocket 4.4 16:18:34 10° N 16:24:18 38° ENE 16:29:59 10° SE
SKYMED 2 4.2 16:20:57 10° NNE 16:24:59 36° E 16:28:59 10° SSE
Starlink C 3.8 16:22:09 10° WNW 16:25:10 37° N 16:27:37 14° ENE
ERBS 2.8 16:22:29 10° WSW 16:25:45 53° NNW 16:28:44 12° NE
Starlink E 3.8 16:24:15 10° WNW 16:27:17 37° N 16:29:39 15° ENE
Starlink J 3.8 16:26:22 10° WNW 16:29:24 37° N 16:31:40 15° ENE
Cosmos 1703 3.9 16:26:31 10° SSE 16:30:07 35° E 16:33:46 10° NNE
SL-8 Rocket 4.1 16:24:28 10° S 16:30:36 58° E 16:36:44 10° NNE
Starlink V 3.8 16:28:27 10° WNW 16:31:29 37° N 16:33:41 16° ENE
Starlink AS 3.7 16:28:50 10° WNW 16:31:33 34° N 16:33:25 17° ENE
Starlink BA 3.7 16:29:03 10° WNW 16:31:47 34° N 16:33:37 17° ENE
Starlink AU 3.7 16:29:16 10° WNW 16:32:00 34° N 16:33:50 17° ENE
Starlink AT 3.7 16:29:30 10° WNW 16:32:13 34° N 16:34:03 17° ENE
Starlink BB 3.7 16:29:44 10° WNW 16:32:27 34° N 16:34:16 17° ENE
Starlink BC 3.7 16:29:57 10° WNW 16:32:40 34° N 16:34:28 17° ENE
Starlink BK 3.7 16:30:10 10° WNW 16:32:54 34° N 16:34:42 17° ENE
Starlink AY 3.7 16:30:25 10° WNW 16:33:08 34° N 16:34:55 17° ENE
Starlink AW 3.7 16:30:38 10° WNW 16:33:21 34° N 16:35:08 17° ENE
Starlink BJ 3.7 16:30:51 10° WNW 16:33:35 34° N 16:35:21 17° ENE
Starlink H 3.8 16:30:35 10° WNW 16:33:37 37° N 16:35:43 17° ENE
Starlink AV 3.7 16:31:05 10° WNW 16:33:49 34° N 16:35:34 18° ENE
Starlink BD 3.7 16:31:18 10° WNW 16:34:03 34° N 16:35:47 18° ENE
Starlink BE 3.7 16:31:30 10° WNW 16:34:16 34° N 16:36:02 18° ENE
Starlink BM 3.7 16:31:46 10° WNW 16:34:30 34° N 16:36:14 18° ENE
Starlink AX 3.7 16:32:00 10° WNW 16:34:43 34° N 16:36:27 18° ENE
Starlink BH 3.7 16:32:13 10° WNW 16:34:56 34° N 16:36:39 18° ENE
Starlink AZ 3.7 16:32:25 10° WNW 16:35:09 34° N 16:36:51 18° ENE
Starlink BG 3.7 16:32:39 10° WNW 16:35:24 34° N 16:37:05 18° ENE
Starlink BF 3.7 16:32:52 10° WNW 16:35:36 34° N 16:37:17 18° ENE
Starlink F 3.8 16:32:42 10° WNW 16:35:45 37° N 16:37:45 18° ENE
ATLAS 5 CENTAUR R/B 3.8 16:32:27 10° WNW 16:35:45 18° NNW 16:39:23 10° NNE
Starlink BL 3.7 16:33:04 10° WNW 16:35:50 34° N 16:37:32 18° ENE
Cosmos 2237 Rocket 3.6 16:30:41 10° NW 16:36:00 43° WSW 16:41:16 10° S
Starlink AH 3.7 16:33:20 10° WNW 16:36:04 34° N 16:37:44 19° ENE
Starlink AQ 3.7 16:33:23 10° WNW 16:36:08 34° N 16:37:49 19° ENE
Starlink AC 3.7 16:33:34 10° WNW 16:36:18 34° N 16:37:57 19° ENE
Starlink X 3.7 16:33:48 10° WNW 16:36:31 34° N 16:38:10 19° ENE
Starlink AE 3.7 16:33:58 10° WNW 16:36:44 35° N 16:38:25 19° ENE
Starlink Z 3.7 16:34:13 10° WNW 16:36:57 34° N 16:38:34 19° ENE
Starlink AK 3.7 16:34:27 10° WNW 16:37:11 34° N 16:38:48 19° ENE
Starlink AL 3.7 16:34:42 10° WNW 16:37:26 34° N 16:39:02 19° ENE
CSL-04 Rocket 4.0 16:32:25 10° SE 16:37:39 46° ENE 16:42:57 10° N
Starlink AD 3.6 16:34:55 10° WNW 16:37:39 34° N 16:39:15 19° ENE
Starlink G 3.8 16:34:49 10° WNW 16:37:52 37° N 16:39:47 19° ENE
Starlink Y 3.6 16:35:22 10° WNW 16:38:06 34° N 16:39:41 19° ENE
Starlink AG 3.6 16:35:36 10° WNW 16:38:20 34° N 16:39:54 20° ENE
CZ-4B R/B 4.5 16:37:59 10° NW 16:38:27 10° WNW 16:38:57 10° WNW
Starlink W 3.7 16:35:47 10° WNW 16:38:32 35° N 16:40:08 20° ENE
Starlink AJ 3.6 16:36:01 10° WNW 16:38:45 34° N 16:40:18 20° ENE
ATLAS CENTAUR R/B 4.3 16:32:53 10° W 16:38:58 59° N 16:53:40 14° ENE
Starlink AM 3.6 16:36:30 10° WNW 16:39:14 34° N 16:40:46 20° ENE
Starlink AP 3.6 16:36:42 10° WNW 16:39:27 34° N 16:40:58 20° ENE
Starlink AA 3.6 16:36:56 10° WNW 16:39:40 34° N 16:41:11 20° ENE
Starlink AF 3.6 16:37:09 10° WNW 16:39:53 34° N 16:41:23 20° ENE
Starlink L 3.8 16:36:56 10° WNW 16:39:59 37° N 16:41:49 20° ENE
Starlink AB 3.6 16:37:24 10° WNW 16:40:08 34° N 16:41:37 20° ENE
Starlink AN 3.6 16:37:38 10° WNW 16:40:23 34° N 16:41:51 20° ENE
YAOGAN 1 2.8 16:37:39 10° SE 16:41:46 45° ENE 16:45:55 10° N
Starlink A 3.8 16:39:04 10° WNW 16:42:07 38° N 16:43:52 20° ENE
Cosmos 2251 Rocket 3.5 16:37:13 10° NNW 16:42:32 71° ENE 16:47:51 10° SSE
Cosmos 1455 2.1 16:39:56 10° N 16:43:46 84° E 16:47:32 10° S
Starlink R 3.7 16:41:12 10° WNW 16:44:16 38° N 16:45:55 21° ENE
Starlink K 3.7 16:43:18 10° WNW 16:46:22 38° N 16:47:57 22° ENE
H-2A R/B 3.4 16:46:35 17° ENE 16:47:06 17° NE 16:50:20 10° NNE
Starlink M 3.7 16:45:25 10° WNW 16:48:29 38° N 16:49:58 24° ENE
Cosmos 2341 Rocket 4.2 16:43:51 10° SSW 16:50:13 80° W 16:56:36 10° N
Cosmos 1939 Rocket 3.2 16:48:54 10° SE 16:52:38 42° ENE 16:56:26 10° N
USA 32 4.4 16:48:48 10° SSW 16:53:59 68° W 16:59:14 10° N
CZ-2D R/B 3.5 16:53:48 10° SE 16:57:29 46° ENE 17:01:12 10° N
Envisat 3.9 16:53:26 10° S 16:58:22 52° W 17:03:21 10° NNW
SL-16 R/B 2.5 16:55:49 10° NNW 17:01:29 69° WSW 17:07:06 10° SSE
Cosmos 44 Rocket 4.3 16:57:37 10° S 17:01:31 25° ESE 17:02:30 23° E
Meteor 2-10 Rocket 3.9 17:00:41 10° NNW 17:05:56 66° W 17:10:58 10° S
USA 267 3.4 17:01:06 17° NE 17:06:19 70° NNW 17:12:49 10° WSW
Cosmos 864 Rocket 4.4 17:01:02 10° S 17:07:09 80° E 17:13:19 10° N
Cosmos 2082 3.7 17:05:14 10° SSW 17:10:52 87° WNW 17:16:22 11° NNE
Cosmos 2219 4.4 17:06:15 10° WSW 17:11:32 40° NW 17:16:52 10° NNE
Cosmos 1953 Rocket 4.0 17:07:59 10° SSW 17:12:26 66° W 17:16:56 10° N
COSMO-SKYMED 1 2.7 17:08:49 10° N 17:13:11 77° WNW 17:17:30 10° SSW
Cosmos 2218 Rocket 4.1 17:07:35 10° S 17:13:58 85° W 17:20:26 10° N
Cosmos 1603 3.8 17:08:52 10° NNW 17:14:25 51° NE 17:18:32 18° SE
Cosmos 1842 Rocket 3.5 17:10:47 10° N 17:15:16 66° ENE 17:19:43 10° SSE
Cosmos 2297 Rocket 3.0 17:11:30 10° SW 17:16:58 49° NW 17:22:29 10° NNE
Cosmos 407 Rocket 3.9 17:12:56 10° NNW 17:17:59 42° ENE 17:20:07 28° ESE
SL-08 R/B 4.5 17:11:47 10° S 17:18:04 72° E 17:24:30 10° NNE
Meteor 1-27 4.1 17:12:58 10° N 17:18:34 72° ENE 17:24:07 10° SSE
SL-8 R/B 3.7 17:14:27 10° WSW 17:19:17 77° S 17:21:14 36° E
Meteor 1-11 4.1 17:15:30 10° S 17:21:04 75° E 17:26:40 10° NNE
ARGOS 4.0 17:23:56 29° NE 17:23:56 29° NE 17:28:15 10° N
Cosmos 2263 Rocket 3.0 17:20:17 10° SSE 17:24:32 28° ESE 17:24:32 28° ESE
Starlink AR 3.8 17:24:03 10° WNW 17:25:52 33° NNW 17:25:52 33° NNW
Meteor 2-12 Rocket 4.3 17:21:59 10° S 17:27:59 70° E 17:34:01 10° NNE
Cosmos 2123 Rocket 4.4 17:22:53 10° N 17:28:48 40° ENE 17:31:44 26° ESE
Cosmos 2227 Rocket 3.2 17:24:53 10° SW 17:30:15 44° NW 17:35:41 10° NNE
NOAA 11 4.4 17:25:20 10° S 17:30:49 74° WSW 17:36:20 10° NNW
ISS -3.6 17:28:25 10° W 17:31:47 62° NNW 17:31:56 61° N
CZ-4 R/B 2.7 17:28:26 10° S 17:32:20 43° W 17:36:21 10° NNW
Starlink T 3.6 17:30:33 10° WNW 17:33:12 44° NNW 17:33:12 44° NNW
Starlink N 3.7 17:32:28 10° WNW 17:35:02 44° NNW 17:35:02 44° NNW
Cosmos 1000 Rocket 4.4 17:29:43 10° N 17:35:55 68° ENE 17:42:08 10° SSE
ATLAS CENTAUR R/B 2.6 17:32:56 10° NW 17:36:41 38° WSW 17:40:10 10° S
Starlink Q 3.8 17:34:37 10° WNW 17:37:06 42° NNW 17:37:06 42° NNW
Cosmos 1934 Rocket 4.3 17:32:31 10° SSE 17:44:44 - NNE 17:37:30 37° E
Shenzhou-11 Module 4.0 17:37:03 10° WSW 17:38:36 19° SSW 17:38:36 19° SSW
Starlink P 3.9 17:36:36 10° WNW 17:39:01 41° NNW 17:39:01 41° NNW
USA 116 3.5 17:40:55 57° NW 17:41:12 60° WNW 17:44:15 10° SSW
CZ-2C R/B 3.9 17:41:56 35° NE 17:41:56 35° NE 17:46:23 10° N
Ariane Rocket 2.9 17:36:36 10° SSE 17:41:38 70° ENE 17:46:43 10° N
Starlink U 3.9 17:38:35 10° WNW 17:40:56 40° NW 17:40:56 40° NW
Cosmos 2239 Rocket 4.5 17:36:51 10° S 17:43:01 58° E 17:49:13 10° NNE
Starlink B 4.0 17:40:35 10° WNW 17:42:52 39° NW 17:42:52 39° NW
Cosmos 1943 3.1 17:39:31 10° NNW 17:45:10 66° ENE 17:47:06 41° SE
Meteor 2-2 Rocket 4.3 17:44:08 10° NNW 17:50:13 88° ENE 17:56:13 10° S
Cosmos 2221 2.7 17:46:54 10° NNW 17:51:10 72° W 17:55:27 10° S
ADEOS Rocket 3.2 17:52:04 10° NNE 17:58:49 80° ESE 18:06:15 10° SSW
SJ-11-01 4.1 17:59:34 59° SSE 18:00:29 86° ENE 18:05:15 10° NNW
Cosmos 614 Rocket 3.9 17:56:04 10° NNW 18:01:18 86° WSW 18:03:06 42° SSE
USA 238 DEB 3.8 17:57:48 10° SSW 18:03:59 48° SE 18:03:59 48° SE
USA 238 3.9 17:57:57 10° SSW 18:04:02 47° SE 18:04:02 47° SE
ATLAS 5 CENTAUR R/B 3.6 18:00:20 10° NW 18:05:05 77° NE 18:15:54 23° SE
IRS-1A Rocket 4.3 18:00:39 10° SSE 18:06:24 82° WSW 18:12:04 10° NNW
MOS 1 4.2 18:07:06 34° SSE 18:09:43 86° ENE 18:15:28 10° NNW
Cosmos 1023 Rocket 4.5 18:10:01 10° NNW 18:14:53 75° N 18:14:53 75° N
ATLAS 5 CENTAUR R/B 4.0 18:18:51 10° NNW 18:21:38 18° N 18:21:38 18° N
Cosmos 1140 Rocket 3.7 18:20:25 10° NNW 18:24:57 66° NW 18:24:57 66° NW
H-2A R/B 2.5 18:27:12 50° NNW 18:27:12 50° NNW 18:31:02 10° NNW
NOSS 3-3 (A) 4.4 18:27:20 10° NW 18:34:47 85° SW 18:36:30 60° SSE
NOSS 3-3 (C) 4.4 18:27:27 10° NW 18:34:53 85° SW 18:36:33 61° SSE
Cosmos 44 Rocket 4.5 18:38:02 10° SW 18:41:15 39° WSW 18:41:15 39° WSW
USA 267 3.8 18:48:27 44° N 18:48:52 45° N 18:55:00 10° WNW
ARGOS 4.5 19:05:26 36° NW 19:05:26 36° NW 19:08:56 10° NNW
BREEZE-M DEB (TANK) 4.4 18:43:52 10° WNW 19:07:40 67° SW 19:08:16 65° S
Cosmos 2263 Rocket 3.6 19:03:10 10° SW 19:06:18 32° WSW 19:06:18 32° WSW
